{"data":{"norad_id":47384,"intl_designator":"2021-005AM","name":"STARLINK-2104","alt_names":[],"object_type":"PAYLOAD","status":"ACTIVE","operator":null,"country":"US","launch_date":"2021-01-20","launch_site_code":"AFETR","launch_vehicle":null,"mission":null,"orbit_class":"UNKNOWN","rcs_meters":null,"size_class":null,"mass_kg":null,"dimensions":null,"purposes":["comms"],"wikipedia_slug":null,"has_3d_model":false,"image_url":null,"decayed_at":null,"tle_current":{"epoch":"2026-05-25T02:10:35.679936Z","epoch_age_seconds":63255,"freshness":"FRESH","line1":"1 47384U 21005AM  26145.09069074  .00001622  00000+0  68497-4 0  9995","line2":"2 47384  53.1560  41.8107 0001145  99.5325 260.5805 15.29364495295081","mean_motion":15.29364495,"eccentricity":0.0001145,"inclination_deg":53.156,"raan_deg":41.8107,"arg_perigee_deg":99.5325,"mean_anomaly_deg":260.5805,"bstar":6.8497e-5,"rev_number":29508,"period_min":94.156756267576,"perigee_km":476.92587781344,"apogee_km":478.49586697622,"semimajor_km":6855.8478723948,"source":"CELESTRAK","updated_at":"2026-05-25T13:38:16.551635Z"}}}